Location: Melbourne
(37.8170°S, 144.9670°E)
Time: 21:48:48
(UTC+10:00)

CZ-3 R/B - Visible Passes

Search period start: 19 September 2014 00:00
Search period end: 29 September 2014 00:00
Orbit: 206 x 14964 km, 28.5° (Epoch: 18 September)

Date Brightness Start Highest point End Pass type
(mag) Time Alt. Az. Time Alt. Az. Time Alt. Az.
19 Sep 5.9 00:55:19 67° N 01:04:48 69° NNE 03:33:20 10° E visible
19 Sep 6.6 05:32:18 10° W 07:40:23 54° NW 08:39:18 10° NNE visible
19 Sep 6.0 23:42:43 57° NE 23:42:43 57° NE 01:58:31 10° E visible
20 Sep 6.4 04:16:08 22° W 06:01:57 67° NW 07:23:06 10° NE visible
20 Sep 5.2 22:29:38 39° ENE 22:29:38 39° ENE 00:07:47 10° ESE visible
21 Sep 6.1 03:02:58 39° WNW 04:11:31 75° NNW 06:04:01 10° NE visible
21 Sep 4.9 21:16:05 21° E 21:16:05 21° E 21:57:47 10° ESE visible
22 Sep 5.9 01:49:19 58° NW 02:20:18 76° N 04:40:58 10° ENE visible
23 Sep 5.8 00:35:11 68° N 00:41:51 70° NNE 03:11:33 10° E visible
23 Sep 6.6 05:11:31 10° W 07:11:24 54° NW 08:20:03 10° NNE visible
23 Sep 5.4 23:20:34 56° NE 23:20:34 56° NE 01:30:56 10° E visible
24 Sep 6.3 03:53:35 22° W 05:29:06 67° NW 07:01:34 10° NE visible
24 Sep 4.8 21:34:24 10° NNW 22:05:28 37° ENE 23:31:40 10° ESE visible
25 Sep 6.0 02:38:24 40° WNW 03:36:33 75° NNW 05:39:48 10° NE visible
25 Sep 4.7 20:19:45 10° NNE 20:49:53 19° E 21:18:32 10° ESE visible
26 Sep 5.7 01:22:42 59° NW 01:47:03 75° N 04:13:16 10° ENE visible
27 Sep 5.5 00:06:31 68° N 00:10:18 69° NNE 02:38:45 10° E visible
27 Sep 6.5 04:41:54 10° W 06:31:35 56° NW 07:52:25 10° NNE visible
27 Sep 4.9 22:23:03 10° NW 22:49:48 53° ENE 00:49:48 10° E visible
28 Sep 6.1 03:22:24 22° W 04:45:09 68° NNW 06:31:17 10° NE visible
28 Sep 4.5 21:05:07 10° NNW 21:32:34 33° E 22:40:31 10° ESE visible
